Starlink 32835

operational
NORAD ID: 63051 Int'l Des: 2025-034 Owner: SPXS Country: US Constellation: starlink
LEOCIRCULAR

关于 Starlink 32835

正在加载描述...

实时位置

正在加载3D地球...

即将过境

高度历史

Altitude vs Time

uPlot chart will show altitude changes over time

两行轨道根数

1 63051U 25034Y 26072.21942236 .00023385 00000-0 79895-3 0 9997
2 63051 53.1582 254.7712 0001212 82.4983 277.6155 15.30209307 59444
Epoch: Mar 13, 2026 • Age: 49 hours

当前状态

高度 486.8 km
速度 7.62 km/s
星下点 -35.21°S, 83.1°W
发射日期 Feb 18, 2025
运行时间 1 years
类型 internet

技术详情

分类 Payload
质量 730.00 kg
干质量 700.00 kg
总质量 730.00 kg
长度 0.30 m
直径 4.10 m
跨度 29.00 m
形状 Box + pan
制造商 SPXS
平台类型 Starlink V2M
阶段状态 In Orbit
所有者/国家 SPXS/US

大型星座

Loading constellations...